Tracking 25656 objects as of 21-May-2022
HD Live streaming from Space Station
objects crossing your sky now

COSMOS 2251 DEB

Track COSMOS 2251 DEB now!
10-day predictions


NORAD ID: 35462
Int'l Code: 1993-036ALG
Perigee: 765.9 km
Apogee: 917.7 km
Inclination: 74.0 °
Period: 101.6 minutes
Semi major axis: 7212 km
RCS: 0.0133 m2 (small)
Launch date: June 16, 1993
Source: Commonwealth of Independent States (former USSR) (CIS)
Launch site: PLESETSK MISSILE AND SPACE COMPLEX (PKMTR)

Note: This is SATELLITE DEBRIS
aabbcc
Your satellite tracking list
Your tracking list is empty




NASA's NSSDC Master Catalog

Two Line Element Set (TLE):
1 35462U 93036ALG 22139.56383130  .00004390  00000-0  20693-2 0  9995
2 35462  74.0447  87.8625 0105233  77.7366 283.5536 14.17252625674794
Source of the keplerian elements: AFSPC